Simultaneous Nadir Overpasses (SNOs) Predictions

Prediction of SNOs between AURA and NPP Satellite Orbit:

Table of predicted SNOs for the next 14.0 days since TLE Epoch: 2/2/2013
Index Date (AURA) Time (AURA) Lat,Lon (AURA) SZA (AURA ) Date (NPP) Time (NPP) Lat,Lon (NPP) SZA (NPP ) Distance(km) Time Diff (sec)
1 02/04/2013 04:31:20 -79.68,-169.60 71.36 02/04/2013 04:30:24 -79.68,-169.64 71.32 0.73 56
2 02/04/2013 05:20:40 79.91, -0.25 108.29 02/04/2013 05:21:01 79.91, -0.18 108.26 1.52 21
3 02/06/2013 20:47:50 -79.81, -52.77 72.35 02/06/2013 20:47:18 -79.82, -52.63 72.36 2.82 32
4 02/06/2013 21:37:13 79.92, 115.75 107.47 02/06/2013 21:37:59 79.92, 115.68 107.45 1.47 46
5 02/09/2013 13:04:22 -79.82, 63.18 73.20 02/09/2013 13:04:15 -79.82, 63.20 73.20 0.45 7
6 02/09/2013 13:53:42 80.04,-127.45 106.46 02/09/2013 13:54:52 80.04,-127.32 106.39 2.56 70
7 02/12/2013 04:31:31 79.71, 10.53 106.12 02/12/2013 04:30:31 79.71, 10.60 106.16 1.24 60
8 02/12/2013 05:20:54 -79.86, 179.34 74.12 02/12/2013 05:21:12 -79.86, 179.27 74.13 1.40 18
9 02/14/2013 20:48:03 79.74, 126.60 105.19 02/14/2013 20:47:28 79.74, 126.59 105.22 0.27 35




NCC Satellite Simultaneous Nadir Overpasses (SNOs) Prediction Service
